Clines Corner, NM

5:05 PM MST on November 18, 2019 (GMT -0700)
Clines Corner

Weather History for KCQC - October, 2019

Change the Weather History Date:

Monday, October 21, 2019

  Actual Average (WUND) Record (WUND)
Temperature  
Mean Temperature 42 °F -  
Max Temperature 53 °F - - (-1)
Min Temperature 30 °F - - (-1)
Degree Days  
Heating Degree Days 24    
Moisture  
Dew Point 5 °F    
Average Humidity 23    
Maximum Humidity 34    
Minimum Humidity 15    
Precipitation  
Precipitation 0.00 in - - ()
Sea Level Pressure  
Sea Level Pressure 30.03 in    
Wind  
Wind Speed 22 mph (WNW)    
Max Wind Speed 39 mph    
Max Gust Speed 53 mph    
Visibility 10 miles    
Events      
Averages and records for this station are not official NWS values.
T = Trace of Precipitation, MM = Missing Value Source: NWS Daily Summary

Daily Weather History Graph

Daily Weather History Graph

Search for Another Location

Airport or City:

Astronomy

Oct. 21, 2019 Rise Set
Actual Time 7:13 AM MDT 6:20 PM MDT
Civil Twilight 6:47 AM MDT 6:46 PM MDT
Nautical Twilight 6:18 AM MDT 7:15 PM MDT
Astronomical Twilight 5:48 AM MDT 7:44 PM MDT
Moon No Moon Rise 2:25 PM MDT (10/21)
Length of Visible Light 11h 58m
Length of Day
11h 06m
Waning Gibbous, 47% of the Moon is Illuminated
Oct 21
Waning Gibbous
Oct 27
New
Nov 4
First Quarter
Nov 12
Full
Nov 19
Last Quarter

Hourly Weather History & Observations

Time (MDT) Temp. Windchill Dew Point Humidity Pressure Visibility Wind Dir Wind Speed Gust Speed Precip Events Conditions
12:53 AM 30.9 °F 20.2 °F -0.9 °F 26% 29.95 in 10.0 mi NW 15.0 mph - N/A   Clear
1:53 AM 34.0 °F 21.8 °F -0.0 °F 24% 29.91 in 10.0 mi WNW 23.0 mph - N/A   Clear
2:53 AM 33.1 °F 21.9 °F 1.0 °F 26% 29.92 in 10.0 mi West 18.4 mph - N/A   Clear
3:53 AM 33.1 °F 21.9 °F -0.0 °F 24% 29.93 in 10.0 mi WNW 18.4 mph - N/A   Clear
4:53 AM 32.0 °F 20.1 °F -0.0 °F 26% 29.94 in 10.0 mi WNW 19.6 mph - N/A   Clear
5:53 AM 33.1 °F 20.3 °F 1.0 °F 26% 29.97 in 10.0 mi West 24.2 mph 33.4 mph N/A   Clear
6:53 AM 33.1 °F 20.6 °F 1.9 °F 27% 30.01 in 10.0 mi WNW 23.0 mph 34.5 mph N/A   Clear
7:53 AM 33.1 °F 22.6 °F 3.0 °F 28% 30.05 in 10.0 mi WNW 16.1 mph - N/A   Clear
8:53 AM 37.9 °F 27.9 °F 3.9 °F 24% 30.06 in 10.0 mi WNW 19.6 mph - N/A   Clear
9:53 AM 43.0 °F 31.8 °F 5.0 °F 21% 30.02 in 10.0 mi WNW 34.5 mph 43.7 mph N/A   Clear
10:53 AM 46.0 °F 35.5 °F 8.1 °F 21% 30.02 in 10.0 mi WNW 39.1 mph 52.9 mph N/A   Clear
11:53 AM 48.0 °F - 8.1 °F 20% 30.03 in 10.0 mi NW 27.6 mph 48.3 mph N/A   Clear
12:53 PM 50.0 °F - 10.0 °F 20% 30.03 in 10.0 mi WNW 36.8 mph 50.6 mph N/A   Clear
1:53 PM 51.1 °F - 8.1 °F 18% 30.00 in 10.0 mi WNW 28.8 mph 42.6 mph N/A   Clear
2:53 PM 53.1 °F - 6.1 °F 15% 29.97 in 10.0 mi WNW 36.8 mph 52.9 mph N/A   Clear
3:53 PM 52.0 °F - 6.1 °F 16% 29.99 in 10.0 mi WNW 36.8 mph 47.2 mph N/A   Clear
4:53 PM 52.0 °F - 7.0 °F 16% 30.01 in 10.0 mi WNW 31.1 mph 47.2 mph N/A   Clear
5:53 PM 48.9 °F - 7.0 °F 18% 30.05 in 10.0 mi WNW 28.8 mph 41.4 mph N/A   Clear
6:53 PM 44.1 °F 36.5 °F 7.0 °F 22% 30.12 in 10.0 mi WNW 17.3 mph - N/A   Clear
7:53 PM 44.1 °F 35.2 °F 7.0 °F 22% 30.14 in 10.0 mi WNW 23.0 mph - N/A   Clear
8:53 PM 39.9 °F 30.5 °F 8.1 °F 27% 30.15 in 10.0 mi WNW 19.6 mph - N/A   Clear
9:53 PM 43.0 °F 34.5 °F 10.0 °F 26% 30.14 in 10.0 mi NNW 19.6 mph 31.1 mph N/A   Clear
10:53 PM 41.0 °F 34.3 °F 10.0 °F 28% 30.17 in 10.0 mi NNW 11.5 mph - N/A   Clear
11:53 PM 36.0 °F 26.7 °F 10.0 °F 34% 30.19 in 10.0 mi WNW 15.0 mph - N/A   Clear